Notices

What's New in latest Release from April 7th, 2021:

- Updated Glossary, including Speed of Maximum Gust, and Total Hourly Precipitation

- Updated national and regional climate services offices contacts and prices information

- Addition of station inventory lists for 1981-2010, 1971-2000, and 1961-1990 Normals.

If you haven't already, please take our survey and provide feedback about our website: https://eccc.sondage-survey.ca/f/LanguageSelection.aspx?s=442ca660-fcf1-47c0-95a9-59707d6fd709

Hourly Data Report for September 28, 2004

SHERBROOKE A
QUEBEC

45°26'00.000" N
71°41'00.000" W
241.40 m
7028124
71610
YSC

Download Data

Hourly Data (September 2004)
Hourly Data Report for September 28, 2004
TIME
LST
Temp Definition
°C
Dew Point Definition
°C
Rel Hum Definition
%
Precip. Amount Definition
mm

Wind Dir Definition
10's deg

Wind Spd Definition
km/h
Visibility Definition
km
Stn Press Definition
kPa
Hmdx Definition


Wind Chill Definition


Weather Definition


00:00 7.2 6.7 97     0 3.4 98.65      
01:00 7.5 6.9 96   3 4 12.9 98.63      
02:00 7.9 7.2 95   9 4 15.0 98.57      
03:00 7.3 6.2 93   8 4 15.0 98.52      
04:00 7.8 7.3 97     0 6.4 98.49      
05:00 7.6 6.9 95     0 11.3 98.47      
06:00 7.2 6.7 97     0 3.9 98.51      
07:00 9.9 9.3 96     0 24.1 98.51     Mainly Clear
08:00 13.5 11.7 89   35 4 24.1 98.51     Mainly Clear
09:00 15.4 13.0 86   22 6 24.1 98.50     Mostly Cloudy
10:00 17.7 14.1 79   25 9 24.1 98.43     Mostly Cloudy
11:00 18.9 14.0 73   26 9 19.3 98.41     Mostly Cloudy
12:00 19.0 13.0 68   28 13 19.3 98.37     Mostly Cloudy
13:00 20.2 13.3 65   30 11 19.3 98.35     Mostly Cloudy
14:00 18.3 12.4 68   30 17 19.3 98.41     Mostly Cloudy
15:00 15.7 12.1 79   34 15 19.3 98.47     Cloudy
16:00 15.2 11.2 77   34 13 19.3 98.54     Cloudy
17:00 14.0 10.9 82   2 9 15.0 98.60      
18:00 12.5 9.4 81   2 9 15.0 98.66      
19:00 11.4 8.2 81   4 9 15.0 98.76      
20:00 10.6 7.3 80   4 9 15.0 98.80      
21:00 8.6 6.8 88   7 6 15.0 98.83      
22:00 7.9 6.4 90   5 7 15.0 98.81      
23:00 7.2 5.5 89   9 4 15.0 98.83      

Notes on Data Quality.

Legend

  • E = Estimated
  • M = Missing
  • NA = Not Available*
  • [empty] = Indicates an unobserved value
Date modified: